DEPWI EDDB-LOWI

Flight info

Callsign DEPWI
Flight time N/A
Altitude 5000
Route VFR
Aircraft DA40/L-SDE3FGHIRWY/LB1

Departure

Time 2026-05-05 17:51
Airport Berlin Brandenburg Airport (EDDB)

Arrival

Time N/A
Airport Innsbruck Airport (LOWI)
Time Latitude Longitude Altitude Speed Heading
2026-05-05 17:39 52.37206 13.52104 155 ft 0 kts 331°
2026-05-05 17:45 52.37239 13.52093 155 ft 10 kts 340°
2026-05-05 17:45 52.37259 13.51969 155 ft 17 kts 250°
2026-05-05 17:45 52.37211 13.51765 154 ft 21 kts 249°
2026-05-05 17:46 52.37152 13.51519 153 ft 25 kts 251°
2026-05-05 17:46 52.37086 13.51238 154 ft 28 kts 246°
2026-05-05 17:46 52.37014 13.50936 154 ft 29 kts 249°
2026-05-05 17:46 52.36939 13.50619 151 ft 31 kts 250°
2026-05-05 17:47 52.36865 13.50306 148 ft 26 kts 247°
2026-05-05 17:47 52.36883 13.50097 145 ft 15 kts 347°
2026-05-05 17:47 52.36988 13.50075 148 ft 15 kts 17°
2026-05-05 17:47 52.37031 13.50128 148 ft 0 kts 39°
2026-05-05 17:49 52.37031 13.50129 148 ft 0 kts 40°
2026-05-05 17:49 52.37054 13.50161 149 ft 8 kts 42°
2026-05-05 17:49 52.37106 13.50225 150 ft 11 kts 38°
2026-05-05 17:50 52.37167 13.50316 151 ft 13 kts 37°
2026-05-05 17:50 52.37230 13.50440 151 ft 17 kts 68°
2026-05-05 17:50 52.37333 13.50876 208 ft 58 kts 67°
2026-05-05 17:50 52.37492 13.51552 400 ft 70 kts 71°
2026-05-05 17:51 52.37605 13.52355 530 ft 74 kts 78°
2026-05-05 17:51 52.37490 13.53171 671 ft 77 kts 111°
2026-05-05 17:51 52.37187 13.53919 792 ft 83 kts 124°
2026-05-05 17:51 52.36735 13.54522 941 ft 86 kts 142°
2026-05-05 17:52 52.36182 13.54949 1039 ft 93 kts 150°
2026-05-05 17:52 52.35537 13.55370 1044 ft 105 kts 159°
2026-05-05 17:52 52.34799 13.55257 1141 ft 107 kts 187°
2026-05-05 17:52 52.34082 13.55033 1239 ft 102 kts 185°
2026-05-05 17:53 52.33383 13.54810 1347 ft 103 kts 186°
2026-05-05 17:53 52.32672 13.54602 1453 ft 104 kts 186°
2026-05-05 17:53 52.31958 13.54387 1551 ft 103 kts 185°
2026-05-05 17:53 52.31257 13.54160 1651 ft 102 kts 186°
2026-05-05 17:54 52.30563 13.53941 1751 ft 101 kts 186°
2026-05-05 17:54 52.29870 13.53725 1853 ft 102 kts 186°
2026-05-05 17:54 52.29181 13.53519 1955 ft 100 kts 186°
2026-05-05 17:54 52.28486 13.53329 2055 ft 101 kts 178°
2026-05-05 17:55 52.27794 13.53380 2156 ft 102 kts 171°
2026-05-05 17:55 52.27086 13.53400 2256 ft 101 kts 172°
2026-05-05 17:55 52.26391 13.53430 2358 ft 99 kts 174°
2026-05-05 17:55 52.25695 13.53474 2459 ft 101 kts 171°
2026-05-05 17:56 52.24987 13.53504 2557 ft 102 kts 173°
2026-05-05 17:56 52.24287 13.53584 2661 ft 101 kts 173°
2026-05-05 17:56 52.23593 13.53665 2760 ft 99 kts 172°
2026-05-05 17:56 52.22900 13.53758 2864 ft 101 kts 171°
2026-05-05 17:57 52.22209 13.53813 2969 ft 99 kts 172°
2026-05-05 17:57 52.21496 13.53899 2986 ft 107 kts 171°
2026-05-05 17:57 52.20738 13.53977 3064 ft 108 kts 172°
2026-05-05 17:57 52.20002 13.54038 3187 ft 104 kts 172°
2026-05-05 17:58 52.19289 13.54100 3308 ft 102 kts 172°
2026-05-05 17:58 52.18591 13.54158 3428 ft 101 kts 172°
2026-05-05 17:58 52.17881 13.54221 3550 ft 100 kts 172°
2026-05-05 17:58 52.17198 13.54290 3669 ft 99 kts 172°
2026-05-05 17:59 52.16519 13.54369 3792 ft 97 kts 172°
2026-05-05 17:59 52.15847 13.54469 3913 ft 96 kts 172°
2026-05-05 17:59 52.15182 13.54567 4038 ft 95 kts 173°
2026-05-05 17:59 52.14526 13.54677 4161 ft 95 kts 172°
2026-05-05 18:00 52.13871 13.54787 4285 ft 94 kts 173°
2026-05-05 18:00 52.13218 13.54900 4403 ft 94 kts 172°
2026-05-05 18:00 52.12571 13.55002 4540 ft 94 kts 172°
2026-05-05 18:00 52.11910 13.55121 4665 ft 94 kts 172°
2026-05-05 18:01 52.11266 13.55242 4787 ft 94 kts 172°
2026-05-05 18:01 52.10617 13.55378 4910 ft 94 kts 172°
2026-05-05 18:01 52.09956 13.55519 4978 ft 100 kts 172°
2026-05-05 18:01 52.09233 13.55673 4989 ft 108 kts 172°
2026-05-05 18:02 52.08466 13.55837 4989 ft 114 kts 172°
2026-05-05 18:02 52.07670 13.56006 4988 ft 116 kts 172°
2026-05-05 18:02 52.06859 13.56181 4986 ft 118 kts 172°
2026-05-05 18:02 52.06039 13.56356 4985 ft 119 kts 172°
2026-05-05 18:03 52.05215 13.56535 4984 ft 120 kts 172°
2026-05-05 18:03 52.04388 13.56713 4984 ft 120 kts 172°
2026-05-05 18:03 52.03559 13.56889 4982 ft 120 kts 172°
2026-05-05 18:03 52.02727 13.57004 4979 ft 120 kts 180°
2026-05-05 18:04 52.01892 13.56986 4982 ft 120 kts 180°
2026-05-05 18:04 52.01057 13.56972 4982 ft 120 kts 180°
2026-05-05 18:04 52.00220 13.56960 4981 ft 120 kts 180°
2026-05-05 18:04 51.99394 13.56952 4982 ft 120 kts 180°
2026-05-05 18:05 51.98557 13.56941 4978 ft 120 kts 180°
2026-05-05 18:05 51.97723 13.56926 5019 ft 117 kts 180°
2026-05-05 18:05 51.96923 13.56904 5089 ft 113 kts 180°
2026-05-05 18:05 51.96142 13.56886 5159 ft 111 kts 180°
2026-05-05 18:06 51.95375 13.56866 5232 ft 109 kts 180°
2026-05-05 18:06 51.94862 13.56849 5281 ft 109 kts 180°
2026-05-05 18:06 51.93867 13.56819 5378 ft 107 kts 180°
2026-05-05 18:06 51.93122 13.56802 5451 ft 107 kts 180°
2026-05-05 18:07 51.92384 13.56788 5529 ft 106 kts 180°
2026-05-05 18:07 51.91646 13.56779 5603 ft 106 kts 180°
2026-05-05 18:07 51.90908 13.56771 5678 ft 106 kts 180°
2026-05-05 18:07 51.90176 13.56763 5754 ft 105 kts 180°
2026-05-05 18:08 51.89448 13.56761 5830 ft 104 kts 180°
2026-05-05 18:08 51.88727 13.56761 5903 ft 103 kts 180°
2026-05-05 18:08 51.88008 13.56767 5977 ft 103 kts 180°
2026-05-05 18:08 51.87292 13.56778 6055 ft 103 kts 180°
2026-05-05 18:09 51.86578 13.56791 6132 ft 102 kts 180°
2026-05-05 18:09 51.85873 13.56806 6202 ft 103 kts 180°
2026-05-05 18:09 51.85153 13.56817 6276 ft 104 kts 180°
2026-05-05 18:09 51.84430 13.56835 6348 ft 104 kts 180°
2026-05-05 18:10 51.83704 13.56852 6420 ft 105 kts 180°
2026-05-05 18:10 51.82976 13.56874 6490 ft 104 kts 180°
2026-05-05 18:10 51.82254 13.56902 6567 ft 104 kts 180°
2026-05-05 18:10 51.81534 13.56932 6642 ft 103 kts 180°
2026-05-05 18:11 51.80813 13.56963 6715 ft 104 kts 180°
2026-05-05 18:11 51.80089 13.56984 6788 ft 105 kts 180°
2026-05-05 18:11 51.79360 13.57008 6862 ft 105 kts 180°
2026-05-05 18:11 51.78629 13.57041 6935 ft 105 kts 180°
2026-05-05 18:12 51.77896 13.57070 7004 ft 105 kts 180°
2026-05-05 18:12 51.77163 13.57096 7077 ft 105 kts 180°
2026-05-05 18:12 51.76430 13.57125 7151 ft 106 kts 180°
2026-05-05 18:12 51.75695 13.57154 7224 ft 105 kts 180°
2026-05-05 18:13 51.74970 13.57186 7299 ft 105 kts 180°
2026-05-05 18:13 51.74236 13.57218 7372 ft 105 kts 180°
2026-05-05 18:13 51.73500 13.57248 7447 ft 106 kts 180°
2026-05-05 18:13 51.72764 13.57271 7522 ft 106 kts 180°
2026-05-05 18:14 51.72031 13.57305 7599 ft 105 kts 180°
2026-05-05 18:14 51.71303 13.57340 7673 ft 105 kts 180°
2026-05-05 18:14 51.70573 13.57367 7748 ft 105 kts 180°
2026-05-05 18:14 51.69846 13.57405 7824 ft 104 kts 180°
2026-05-05 18:15 51.69120 13.57441 7897 ft 105 kts 180°
2026-05-05 18:15 51.68392 13.57479 7962 ft 107 kts 179°
2026-05-05 18:15 51.67629 13.57511 7964 ft 112 kts 180°
2026-05-05 18:15 51.66839 13.57538 7966 ft 115 kts 180°
2026-05-05 18:16 51.66034 13.57572 7972 ft 117 kts 180°
2026-05-05 18:16 51.65218 13.57608 7973 ft 118 kts 180°
2026-05-05 18:16 51.64407 13.57637 7972 ft 118 kts 180°
2026-05-05 18:16 51.63581 13.57669 7976 ft 119 kts 180°
2026-05-05 18:17 51.62760 13.57588 7971 ft 117 kts 192°
2026-05-05 18:17 51.61960 13.57331 7972 ft 117 kts 192°
2026-05-05 18:17 51.61160 13.57078 7971 ft 117 kts 192°
2026-05-05 18:17 51.60359 13.56829 7970 ft 117 kts 192°
2026-05-05 18:18 51.59560 13.56580 7969 ft 117 kts 192°
2026-05-05 18:18 51.58777 13.56332 7968 ft 116 kts 192°
2026-05-05 18:18 51.57986 13.56085 7969 ft 116 kts 192°
2026-05-05 18:18 51.57192 13.55833 7967 ft 116 kts 192°
2026-05-05 18:19 51.56400 13.55583 7967 ft 116 kts 192°
2026-05-05 18:19 51.55610 13.55335 7966 ft 116 kts 192°
2026-05-05 18:19 51.54822 13.55086 7966 ft 115 kts 192°
2026-05-05 18:19 51.54033 13.54834 7967 ft 116 kts 192°
2026-05-05 18:20 51.53242 13.54580 7966 ft 116 kts 192°
2026-05-05 18:20 51.52719 13.54414 7966 ft 115 kts 192°
2026-05-05 18:20 51.51675 13.54081 7966 ft 116 kts 192°
2026-05-05 18:20 51.50875 13.53825 7966 ft 115 kts 192°
2026-05-05 18:21 51.50087 13.53572 7969 ft 116 kts 192°
2026-05-05 18:21 51.49307 13.53311 7978 ft 116 kts 192°
2026-05-05 18:21 51.48518 13.53041 7970 ft 116 kts 192°
2026-05-05 18:21 51.47728 13.52772 7970 ft 116 kts 192°
2026-05-05 18:22 51.46939 13.52504 7967 ft 116 kts 192°
2026-05-05 18:22 51.46152 13.52236 7973 ft 115 kts 192°
2026-05-05 18:22 51.45366 13.51970 7967 ft 116 kts 192°
2026-05-05 18:22 51.44576 13.51700 7970 ft 116 kts 192°
2026-05-05 18:23 51.43787 13.51429 7967 ft 116 kts 192°
2026-05-05 18:23 51.43000 13.51157 7967 ft 116 kts 192°
2026-05-05 18:23 51.42208 13.50888 7967 ft 116 kts 192°
2026-05-05 18:23 51.41430 13.50621 7968 ft 116 kts 192°
2026-05-05 18:24 51.40640 13.50352 7965 ft 116 kts 192°
2026-05-05 18:24 51.39848 13.50078 7964 ft 116 kts 192°
2026-05-05 18:24 51.39057 13.49808 7965 ft 116 kts 192°
2026-05-05 18:24 51.38272 13.49510 7964 ft 116 kts 197°
2026-05-05 18:25 51.37512 13.49076 7964 ft 116 kts 199°
2026-05-05 18:25 51.37254 13.48929 7964 ft 116 kts 199°
2026-05-05 18:25 51.35990 13.48202 7964 ft 116 kts 199°
2026-05-05 18:25 51.35488 13.47912 7974 ft 116 kts 199°
2026-05-05 18:26 51.34732 13.47474 7965 ft 115 kts 199°
2026-05-05 18:26 51.33977 13.47037 7964 ft 115 kts 199°
2026-05-05 18:26 51.32978 13.46462 7970 ft 115 kts 199°
2026-05-05 18:26 51.32224 13.46030 7972 ft 115 kts 199°
2026-05-05 18:27 51.31713 13.45737 7969 ft 115 kts 199°
2026-05-05 18:27 51.30953 13.45304 7969 ft 116 kts 199°
2026-05-05 18:27 51.30190 13.44869 7968 ft 116 kts 199°
2026-05-05 18:27 51.29425 13.44436 7968 ft 117 kts 199°
2026-05-05 18:28 51.27879 13.43562 7971 ft 119 kts 199°
2026-05-05 18:28 51.27097 13.43116 7967 ft 119 kts 199°
2026-05-05 18:28 51.26334 13.42597 7967 ft 119 kts 202°
2026-05-05 18:29 51.25581 13.42060 7975 ft 119 kts 202°
2026-05-05 18:29 51.24830 13.41524 7975 ft 118 kts 202°
2026-05-05 18:29 51.24077 13.40990 7966 ft 118 kts 202°
2026-05-05 18:29 51.23323 13.40464 7968 ft 118 kts 202°
2026-05-05 18:30 51.22569 13.39935 7964 ft 118 kts 202°
2026-05-05 18:30 51.21818 13.39402 7971 ft 118 kts 201°
2026-05-05 18:30 51.21074 13.38865 7971 ft 117 kts 202°
2026-05-05 18:30 51.20316 13.38397 7969 ft 117 kts 195°
2026-05-05 18:31 51.19533 13.38032 7972 ft 118 kts 195°
2026-05-05 18:31 51.18745 13.37659 7964 ft 118 kts 195°
2026-05-05 18:31 51.17962 13.37277 7971 ft 117 kts 195°
2026-05-05 18:31 51.17186 13.36901 7965 ft 116 kts 195°
2026-05-05 18:32 51.16415 13.36525 7967 ft 116 kts 194°
2026-05-05 18:32 51.15654 13.36152 7971 ft 115 kts 195°
2026-05-05 18:32 51.14885 13.35774 7965 ft 115 kts 195°
2026-05-05 18:32 51.14117 13.35396 7967 ft 116 kts 195°
2026-05-05 18:33 51.13346 13.35019 7965 ft 116 kts 195°
2026-05-05 18:33 51.12579 13.34638 7965 ft 116 kts 195°
2026-05-05 18:33 51.11804 13.34258 7971 ft 116 kts 195°
2026-05-05 18:33 51.11032 13.33876 7971 ft 116 kts 195°
2026-05-05 18:34 51.10260 13.33499 7962 ft 117 kts 195°
2026-05-05 18:34 51.09478 13.33124 7962 ft 118 kts 195°
2026-05-05 18:34 51.08690 13.32749 7963 ft 119 kts 195°
2026-05-05 18:34 51.07906 13.32376 7962 ft 119 kts 195°
2026-05-05 18:35 51.07116 13.32002 7961 ft 118 kts 195°
2026-05-05 18:35 51.06323 13.31633 7962 ft 119 kts 194°
2026-05-05 18:35 51.05531 13.31252 7961 ft 118 kts 195°
2026-05-05 18:35 51.04749 13.30873 7986 ft 115 kts 195°
2026-05-05 18:36 51.04026 13.30517 8132 ft 104 kts 195°
2026-05-05 18:36 51.03359 13.30184 8271 ft 98 kts 195°
2026-05-05 18:36 51.02724 13.29871 8410 ft 94 kts 195°
2026-05-05 18:36 51.02113 13.29572 8545 ft 90 kts 195°
2026-05-05 18:37 51.01523 13.29285 8698 ft 88 kts 195°
2026-05-05 18:37 51.00947 13.29002 8841 ft 85 kts 195°
2026-05-05 18:37 51.00386 13.28725 8990 ft 84 kts 197°
2026-05-05 18:37 50.99846 13.28390 9140 ft 83 kts 199°
2026-05-05 18:38 50.99312 13.28063 9295 ft 82 kts 199°
2026-05-05 18:38 50.98791 13.27748 9447 ft 81 kts 199°
2026-05-05 18:38 50.98268 13.27432 9602 ft 80 kts 199°
2026-05-05 18:38 50.97749 13.27120 9749 ft 80 kts 199°
2026-05-05 18:39 50.97232 13.26809 9888 ft 79 kts 199°
2026-05-05 18:39 50.96700 13.26489 9949 ft 88 kts 199°
2026-05-05 18:39 50.96095 13.26127 9962 ft 98 kts 199°
2026-05-05 18:39 50.95431 13.25732 9961 ft 106 kts 199°
2026-05-05 18:40 50.94726 13.25312 9954 ft 110 kts 199°
2026-05-05 18:40 50.93997 13.24884 9959 ft 113 kts 199°
2026-05-05 18:40 50.93256 13.24449 9958 ft 114 kts 199°
2026-05-05 18:40 50.92507 13.24012 9957 ft 115 kts 199°
2026-05-05 18:41 50.91751 13.23562 9960 ft 116 kts 200°
2026-05-05 18:41 50.91011 13.23049 9960 ft 116 kts 202°
2026-05-05 18:41 50.90270 13.22539 9958 ft 116 kts 202°
2026-05-05 18:41 50.89528 13.22028 9957 ft 116 kts 202°
2026-05-05 18:42 50.88789 13.21520 9953 ft 116 kts 202°
2026-05-05 18:42 50.88049 13.21006 9956 ft 116 kts 202°
2026-05-05 18:42 50.87310 13.20494 9953 ft 116 kts 202°
2026-05-05 18:42 50.86571 13.19981 9952 ft 116 kts 202°
2026-05-05 18:43 50.85840 13.19475 9952 ft 116 kts 202°
2026-05-05 18:43 50.85100 13.18960 9954 ft 116 kts 202°
2026-05-05 18:43 50.84357 13.18448 9952 ft 116 kts 202°
2026-05-05 18:43 50.83614 13.17937 9953 ft 116 kts 201°
2026-05-05 18:44 50.82870 13.17425 9955 ft 117 kts 202°
2026-05-05 18:44 50.82125 13.16917 9953 ft 117 kts 201°
2026-05-05 18:44 50.81383 13.16410 9951 ft 116 kts 202°
2026-05-05 18:44 50.80646 13.15906 9953 ft 115 kts 202°
2026-05-05 18:45 50.79904 13.15405 9952 ft 116 kts 201°
2026-05-05 18:45 50.79161 13.14902 9953 ft 116 kts 202°
2026-05-05 18:45 50.78428 13.14405 9947 ft 114 kts 202°
2026-05-05 18:45 50.77699 13.13907 9944 ft 114 kts 201°
2026-05-05 18:46 50.76970 13.13411 9946 ft 114 kts 202°
2026-05-05 18:46 50.76240 13.12915 9949 ft 114 kts 201°
2026-05-05 18:46 50.75509 13.12416 9951 ft 115 kts 202°
2026-05-05 18:46 50.74772 13.11916 9951 ft 115 kts 202°
2026-05-05 18:47 50.74042 13.11430 9933 ft 114 kts 200°
2026-05-05 18:47 50.73312 13.10978 9944 ft 113 kts 202°
2026-05-05 18:47 50.72587 13.10469 9944 ft 114 kts 202°
2026-05-05 18:47 50.71862 13.09966 9946 ft 114 kts 202°
2026-05-05 18:48 50.71135 13.09470 9949 ft 114 kts 202°
2026-05-05 18:48 50.70403 13.08970 9950 ft 115 kts 202°
2026-05-05 18:48 50.69665 13.08469 9952 ft 116 kts 202°
2026-05-05 18:48 50.68927 13.07968 9943 ft 115 kts 202°
2026-05-05 18:49 50.68189 13.07468 9944 ft 115 kts 201°
2026-05-05 18:49 50.67458 13.06967 9946 ft 114 kts 201°
2026-05-05 18:49 50.66722 13.06467 9945 ft 115 kts 202°
2026-05-05 18:49 50.65985 13.05969 9945 ft 115 kts 202°
2026-05-05 18:50 50.65250 13.05471 9944 ft 115 kts 201°
2026-05-05 18:50 50.64521 13.04973 9943 ft 114 kts 202°
2026-05-05 18:50 50.63796 13.04479 9943 ft 114 kts 202°
2026-05-05 18:50 50.63066 13.03986 9944 ft 114 kts 201°
2026-05-05 18:51 50.62340 13.03493 9946 ft 115 kts 202°
2026-05-05 18:51 50.61604 13.02993 9945 ft 115 kts 202°
2026-05-05 18:51 50.60871 13.02495 9945 ft 115 kts 202°
2026-05-05 18:51 50.60136 13.01998 9940 ft 115 kts 201°
2026-05-05 18:52 50.59400 13.01487 9940 ft 116 kts 201°
2026-05-05 18:52 50.58659 13.00973 9941 ft 116 kts 202°
2026-05-05 18:52 50.57919 13.00459 9941 ft 116 kts 201°
2026-05-05 18:52 50.57177 12.99947 9941 ft 117 kts 202°
2026-05-05 18:53 50.56432 12.99432 9947 ft 117 kts 202°
2026-05-05 18:53 50.55690 12.98919 9946 ft 117 kts 202°
2026-05-05 18:53 50.54944 12.98402 9947 ft 117 kts 202°
2026-05-05 18:53 50.54200 12.97883 9948 ft 117 kts 201°
2026-05-05 18:54 50.53464 12.97369 9946 ft 117 kts 202°
2026-05-05 18:54 50.52717 12.96853 9944 ft 117 kts 202°
2026-05-05 18:54 50.51971 12.96339 9945 ft 117 kts 201°
2026-05-05 18:54 50.51223 12.95817 9945 ft 118 kts 201°
2026-05-05 18:55 50.50480 12.95293 9945 ft 116 kts 202°
2026-05-05 18:55 50.49738 12.94776 9948 ft 117 kts 201°
2026-05-05 18:55 50.48989 12.94258 9950 ft 118 kts 202°
2026-05-05 18:55 50.48238 12.93741 9949 ft 118 kts 202°
2026-05-05 18:56 50.47492 12.93228 9948 ft 117 kts 202°
2026-05-05 18:56 50.46747 12.92714 9947 ft 117 kts 201°
2026-05-05 18:56 50.45997 12.92202 9950 ft 118 kts 202°
2026-05-05 18:56 50.45247 12.91720 9933 ft 117 kts 199°
2026-05-05 18:57 50.44499 12.91222 9937 ft 117 kts 202°
2026-05-05 18:57 50.43754 12.90717 9939 ft 117 kts 200°
2026-05-05 18:57 50.42997 12.90241 9937 ft 117 kts 200°
2026-05-05 18:57 50.42242 12.89770 9941 ft 117 kts 199°
2026-05-05 18:58 50.41483 12.89298 9941 ft 118 kts 200°
2026-05-05 18:58 50.40724 12.88820 9942 ft 117 kts 200°
2026-05-05 18:58 50.39978 12.88342 9940 ft 116 kts 200°
2026-05-05 18:58 50.39227 12.87876 9940 ft 116 kts 200°
2026-05-05 18:59 50.38472 12.87409 9941 ft 117 kts 200°
2026-05-05 18:59 50.37711 12.86939 9943 ft 118 kts 200°
2026-05-05 18:59 50.36947 12.86454 9944 ft 119 kts 202°
2026-05-05 18:59 50.36202 12.85889 9944 ft 118 kts 204°
2026-05-05 19:00 50.35459 12.85325 9942 ft 118 kts 204°
2026-05-05 19:00 50.34716 12.84766 9942 ft 119 kts 204°
2026-05-05 19:00 50.33971 12.84203 9944 ft 119 kts 204°
2026-05-05 19:00 50.33237 12.83643 9935 ft 115 kts 204°
2026-05-05 19:01 50.32522 12.83094 9941 ft 116 kts 204°
2026-05-05 19:01 50.31775 12.82603 9942 ft 117 kts 194°
2026-05-05 19:01 50.30997 12.82273 9942 ft 118 kts 195°
2026-05-05 19:01 50.30213 12.81895 9944 ft 118 kts 196°
2026-05-05 19:02 50.29431 12.81502 9944 ft 118 kts 196°
2026-05-05 19:02 50.28654 12.81106 9944 ft 117 kts 197°
2026-05-05 19:02 50.27878 12.80708 9944 ft 117 kts 197°
2026-05-05 19:02 50.27101 12.80307 9944 ft 118 kts 197°
2026-05-05 19:03 50.26323 12.79906 9944 ft 118 kts 197°
2026-05-05 19:03 50.25546 12.79505 9944 ft 117 kts 197°
2026-05-05 19:03 50.24771 12.79105 9943 ft 117 kts 197°
2026-05-05 19:03 50.23997 12.78706 9943 ft 117 kts 197°
2026-05-05 19:04 50.23221 12.78305 9943 ft 117 kts 197°
2026-05-05 19:04 50.22445 12.77906 9944 ft 117 kts 197°
2026-05-05 19:04 50.21670 12.77506 9944 ft 117 kts 197°
2026-05-05 19:04 50.20898 12.77109 9943 ft 117 kts 197°
2026-05-05 19:05 50.20136 12.76716 9943 ft 117 kts 197°
2026-05-05 19:05 50.19359 12.76317 9944 ft 118 kts 197°
2026-05-05 19:05 50.18575 12.75914 9945 ft 119 kts 197°
2026-05-05 19:05 50.17796 12.75512 9944 ft 117 kts 197°
2026-05-05 19:06 50.17026 12.75116 9945 ft 116 kts 197°
2026-05-05 19:06 50.16263 12.74724 9944 ft 115 kts 197°
2026-05-05 19:06 50.15508 12.74325 9943 ft 114 kts 194°
2026-05-05 19:06 50.14756 12.74565 9942 ft 117 kts 147°
2026-05-05 19:07 50.14342 12.75691 9991 ft 127 kts 105°
2026-05-05 19:07 50.14361 12.76620 9992 ft 132 kts 87°
2026-05-05 19:07 50.14812 12.78432 9998 ft 135 kts 73°
2026-05-05 19:07 50.15175 12.79772 10002 ft 133 kts 73°
2026-05-05 19:08 50.15543 12.81105 10003 ft 134 kts 72°
2026-05-05 19:08 50.15916 12.82457 10003 ft 137 kts 72°
2026-05-05 19:08 50.16334 12.83771 10000 ft 141 kts 54°
2026-05-05 19:08 50.17129 12.84671 10003 ft 141 kts 34°
2026-05-05 19:09 50.17954 12.85497 10005 ft 140 kts 36°
2026-05-05 19:09 50.18772 12.86324 10004 ft 140 kts 36°
2026-05-05 19:09 50.19606 12.87172 9866 ft 149 kts 36°
2026-05-05 19:09 50.20500 12.88090 9656 ft 157 kts 36°
2026-05-05 19:10 50.21424 12.89039 9429 ft 160 kts 36°
2026-05-05 19:10 50.22360 12.89995 9200 ft 162 kts 36°
2026-05-05 19:10 50.23174 12.91136 8960 ft 155 kts 65°
2026-05-05 19:10 50.23331 12.92741 8729 ft 149 kts 97°
2026-05-05 19:11 50.23126 12.94285 8478 ft 143 kts 122°
2026-05-05 19:11 50.22585 12.95584 8203 ft 143 kts 127°
2026-05-05 19:11 50.22047 12.96874 7929 ft 144 kts 126°
2026-05-05 19:11 50.21639 12.98305 7654 ft 149 kts 101°
2026-05-05 19:12 50.21622 12.99930 7385 ft 150 kts 94°
2026-05-05 19:12 50.21806 13.01524 7113 ft 153 kts 69°
2026-05-05 19:12 50.22325 13.02972 6848 ft 153 kts 65°
2026-05-05 19:12 50.22913 13.04351 6580 ft 155 kts 46°
2026-05-05 19:13 50.23942 13.04871 6314 ft 164 kts 358°
2026-05-05 19:13 50.24652 13.04468 6131 ft 167 kts 326°
2026-05-05 19:13 50.25346 13.03053 5852 ft 164 kts 297°
2026-05-05 19:13 50.25677 13.01382 5573 ft 161 kts 270°
2026-05-05 19:14 50.25691 12.99637 5300 ft 161 kts 268°
2026-05-05 19:14 50.25692 12.97891 5030 ft 161 kts 268°
2026-05-05 19:14 50.25681 12.96145 4765 ft 160 kts 268°
2026-05-05 19:14 50.25681 12.94532 4483 ft 139 kts 268°
2026-05-05 19:15 50.25663 12.93114 4251 ft 123 kts 265°
2026-05-05 19:15 50.25602 12.91821 3954 ft 120 kts 260°
2026-05-05 19:15 50.25416 12.90631 3847 ft 105 kts 237°
2026-05-05 19:15 50.24863 12.89913 3873 ft 114 kts 208°
2026-05-05 19:16 50.24228 12.89296 3889 ft 104 kts 207°
2026-05-05 19:16 50.23590 12.88755 3688 ft 107 kts 198°
2026-05-05 19:16 50.22877 12.88473 3383 ft 103 kts 193°
2026-05-05 19:16 50.22203 12.88283 3129 ft 98 kts 179°
2026-05-05 19:17 50.21530 12.88450 2839 ft 99 kts 161°
2026-05-05 19:17 50.21037 12.89144 2551 ft 97 kts 139°
2026-05-05 19:17 50.20687 12.90118 2135 ft 106 kts 120°
2026-05-05 19:17 50.20600 12.91192 2259 ft 106 kts 59°
2026-05-05 19:18 50.21009 12.92016 2395 ft 94 kts 40°
2026-05-05 19:18 50.21633 12.92190 2521 ft 101 kts 342°
2026-05-05 19:18 50.22133 12.91630 2502 ft 84 kts 288°
2026-05-05 19:18 50.22055 12.90818 2354 ft 74 kts 253°
2026-05-05 19:19 50.21801 12.90186 2339 ft 68 kts 228°
2026-05-05 19:19 50.21388 12.89780 2259 ft 76 kts 202°
2026-05-05 19:19 50.20850 12.89862 2142 ft 85 kts 150°
2026-05-05 19:19 50.20544 12.90659 1996 ft 83 kts 118°
2026-05-05 19:20 50.20344 12.91393 1994 ft 60 kts 113°
2026-05-05 19:20 50.20196 12.91907 1991 ft 48 kts 120°
2026-05-05 19:20 50.20102 12.92258 1991 ft 25 kts 112°
2026-05-05 19:20 50.20030 12.92519 1992 ft 24 kts 112°
2026-05-05 19:21 50.19944 12.92660 1990 ft 17 kts 163°
2026-05-05 19:21 50.19908 12.92600 1990 ft 8 kts 277°
2026-05-05 19:21 50.19923 12.92548 1992 ft 6 kts 292°
2026-05-05 19:21 50.19940 12.92487 1993 ft 7 kts 294°
2026-05-05 19:22 50.19965 12.92392 1993 ft 12 kts 294°
2026-05-05 19:22 50.20002 12.92259 1994 ft 14 kts 291°
2026-05-05 19:22 50.20034 12.92143 1994 ft 11 kts 289°
2026-05-05 19:22 50.20070 12.92009 1991 ft 16 kts 292°
2026-05-05 19:23 50.20119 12.91834 1991 ft 18 kts 295°
2026-05-05 19:23 50.20169 12.91640 1990 ft 19 kts 294°
2026-05-05 19:23 50.20223 12.91456 1994 ft 18 kts 292°
2026-05-05 19:23 50.20270 12.91280 1992 ft 13 kts 295°
2026-05-05 19:24 50.20266 12.91183 1989 ft 13 kts 194°
2026-05-05 19:24 50.20211 12.91203 1989 ft 5 kts 205°
2026-05-05 19:24 50.20204 12.91198 1989 ft 1 kts 204°
2026-05-05 19:24 50.20200 12.91196 1989 ft 1 kts 210°
2026-05-05 19:25 50.20200 12.91195 1989 ft 0 kts 209°